Regional Weather Roundup
Issued by NWS

Home | Current Version | Previous Version | Graphics & Text | Print | Product List | Glossary On
Versions: 1 2 3 4 5 6 7 8 9 10 11 12 13 14 15 16 17 18 19 20 21 22 23 24 25 26 27 28 29 30 31 32 33 34 35 36 37 38 39 40 41 42 43 44 45 46 47 48 49 50
000
ASUS43 KDMX 221607
RWRIA

WEATHER ROUNDUP FOR IOWA
NATIONAL WEATHER SERVICE DES MOINES IA
1000 AM CST MON DEC 22 2014

NOTE: "FAIR" INDICATES FEW OR NO CLOUDS BELOW 12,000 FEET WITH NO
SIGNIFICANT WEATHER AND/OR OBSTRUCTIONS TO VISIBILITY.

* - THESE STATIONS ARE NOT NWS STATIONS...THUS NOT UNDER NWS
QUALITY CONTROL.  THEY ALSO DO NOT REPORT WEATHER SUCH
AS PRECIPITATION OR FOG.

IAZ001>003-012>014-020>022-031>034-043>046-221700-
   NORTHWEST IOWA

CITY           SKY/WX    TMP DP  RH WIND       PRES   REMARKS
CARROLL *      MIX PCPN  39  39 100 SE14      29.55F WCI  31
CHEROKEE *     RAIN      39  39 100 SE13      29.51S WCI  32
DENISON *      PTSUNNY   41  41 100 SE13G22   29.50F FOG
LE MARS *      CLOUDY    41  41 100 SE13G18   29.48S FOG
ORANGE CITY *  DRIZZLE   41  39  93 SE9G17    29.48S
SHELDON *      CLOUDY    39  39 100 SE17G23   29.48S FOG     WCI  30
SIOUX CITY     LGT RAIN  43  41  93 S13       29.48F FOG
SPENCER        LGT RAIN  39  37  92 SE18      29.52F FOG     WCI  30
STORM LAKE *   CLOUDY    39  39 100 SE16      29.53S FOG     WCI  30
$$

IAZ055>058-069>071-079>083-090>094-221700-
   SOUTHWEST IOWA

CITY           SKY/WX    TMP DP  RH WIND       PRES   REMARKS
ATLANTIC *     MIX PCPN  41  39  93 SE12G18   29.54F
AUDUBON *      RAIN      39  36  87 S10G16    29.55F WCI  32
CLARINDA *     CLOUDY    41  41 100 SE8       29.57F FOG
COUNCIL BLFS * CLOUDY    41  41 100 SE14      29.50F FOG
CRESTON *      MIX PCPN  39  39 100 SE14      29.57F WCI  31
HARLAN  *      CLOUDY    41  41 100 SE13      29.56F FOG
LAMONI         LGT RAIN  39  37  92 SE9       29.59F FOG     WCI  33
RED OAK *      MIX PCPN  41  41 100 S10       29.54F
SHENANDOAH *   MIX PCPN  43  43 100 SE14      29.54F
$$

IAZ047>049-059>061-072>074-084-221700-
   CENTRAL IOWA

CITY           SKY/WX    TMP DP  RH WIND       PRES   REMARKS
AMES           LGT RAIN  38  36  92 SE10      29.61F FOG     WCI  31
ANKENY *       MIX PCPN  39  39 100 SE9       29.61F WCI  33
CHARITON *     CLOUDY    39  37  93 SE12      29.61F FOG     WCI  32
DES MOINES     LGT RAIN  40  37  89 SE10      29.61F FOG     WCI  33
GRINNELL*      RAIN      37  36  93 SE13      29.65S WCI  29
KNOXVILLE *    MIX PCPN  39  36  87 SE12      29.61F WCI  32
MARSHALLTOWN   CLOUDY    37  35  92 SE14      29.63F FOG     WCI  28
PELLA *        RAIN      39  37  93 SE9       29.65F WCI  33
PERRY *        DRIZZLE   39  39 100 SE15      29.58F WCI  31
$$

IAZ004>006-015-016-023>025-035-036-221700-
   NORTH CENTRAL IOWA

CITY           SKY/WX    TMP DP  RH WIND       PRES   REMARKS
ALGONA *       CLOUDY    37  37 100 SE17      29.58S FOG     WCI  28
CLARION *      MIX PCPN  36  36 100 SE16      29.60F VSB 1   WCI  26
ESTHERVILLE    MIX PCPN  37  37 100 SE18      29.54S FOG     WCI  27
FORT DODGE *   CLOUDY    37  36  93 SE12      29.59S WCI  30
MASON CITY     LGT RAIN  35  34  96 SE14      29.64S FOG     WCI  26
FOREST CITY *  DRIZZLE   36  34  93 SE14G20   29.61F WCI  27
IOWA FALLS *   DRIZZLE   36  36 100 SE13      29.63F WCI  27
$$

IAZ007>011-017>019-026>030-037>042-050>054-066-221700-
   NORTHEAST IOWA

CITY           SKY/WX    TMP DP  RH WIND       PRES   REMARKS
CEDAR RAPIDS   CLOUDY    37  34  89 SE12      29.69F FOG     WCI  29
CHARLES CITY * CLOUDY    36  36 100 SE13G20   29.66F FOG     WCI  27
CLINTON *      CLOUDY    36  30  80 SE15      29.79F WCI  26
DECORAH *      CLOUDY    34  34 100 SE9G20    29.69F FOG     WCI  26
DUBUQUE        CLOUDY    34  31  88 SE13      29.75S FOG     WCI  25
MONTICELLO *   CLOUDY    37  36  93 SE15G23   29.72F WCI  28
OELWEIN *      CLOUDY    36  34  93 SE15G24   29.69F FOG     WCI  26
WATERLOO       CLOUDY    36  35  96 SE13      29.67F FOG     WCI  27
$$

IAZ064-065-067-068-078-221700-
   EAST CENTRAL IOWA

CITY           SKY/WX    TMP DP  RH WIND       PRES   REMARKS
DAVENPORT      CLOUDY    36  30  79 SE16      29.75F WCI  26
IOWA CITY      LGT RAIN  38  34  85 SE9       29.72F FOG     WCI  31
MT. PLEASANT * RAIN      36  36 100 SE10G17   29.69F WCI  28
MUSCATINE *    MIX PCPN  39  34  81 E10       29.73F WCI  32
QUAD CITIES    LGT RAIN  37  31  78 E16       29.75F WCI  28
$$

IAZ062-063-075>077-085>089-095>099-221700-
   SOUTHEAST IOWA

CITY           SKY/WX    TMP DP  RH WIND       PRES   REMARKS
BURLINGTON     LGT RAIN  37  35  92 SE12      29.69F FOG     WCI  29
FAIRFIELD *    MIX PCPN  37  36  93 SE15      29.67F WCI  28
FORT MADISON * RAIN      39  37  93 E7        29.70F WCI  34
KEOKUK *       MIX PCPN  37  37 100 SE10      29.68F WCI  30
OSKALOOSA *    LGT RAIN  37  36  93 SE14      29.66S WCI  29
CENTERVILLE *  LGT RAIN  39  39 100 SE10      29.64F WCI  32
OTTUMWA        LGT RAIN  38  35  89 SE13      29.65F FOG     WCI  30
WASHINGTON *   MIX PCPN  37  37 100 SE15      29.69F WCI  28
$$

ABBREVIATIONS USED IN REMARKS
   TC - TEMPERATURES IN CELSIUS
  WCI - WIND CHILL INDEX
   HX - HEAT INDEX
  VSB - VISIBILITY
$$




USA.gov is the U.S. government's official web portal to all federal, state and local government web resources and services.